UKLLUKLU

Guest
Details From UKLL - Lviv Intl
To UKLU - Uzhhorod Intl
Flight Number -
Tags Generated
Created
Modified
Stats Distance 97 nm / 180 km
Max Altitude 0 ft / 0 m
Waypoints 2
Social Downloads 1
Likes 0
Share VATSIM

Download

Looking for another format? Having issues loading an existing format? Contact us
Advertisement - Login to hide

Notes

Generated

Route

UKLL UKLU

ID Type Via Altitude Latitude Longitude Leg Dist Tot Dist Heading (true) Name
O UKLL APT - 0 ft / 0 m 49.82083˚ 23.94389˚ - 0 nm - -
O UKLU APT - 0 ft / 0 m 48.63640˚ 22.24988˚ 97 nm 97 nm 224° / 222° -

Altitude Profile

Advertisement - Login to hide

UKLL

Details ICAO UKLL (LWO)
Name LVIV INTL
Region Ukraine
Timezone Europe/Kiev (UTC+3.0)
Stats Elevation 1,071 ft / 326 m (AMSL)
Location 49.812638° 23.956111°
Runways 1
Magnetic Variation 6.152° E

METAR

UKLL 221600Z 09003MPS 9999 SCT040CB 19/13 Q1018 R13/290055 NOSIG

Decode

TAF

Not found

Departure Runways

ID Width Length Bearing (true) Bearing (mag) Surface Threshold Offset Overrun Length
13 148 ft / 45 m 8,300 ft / 2,530 m 136.09° 129.94° Asphalt 0 ft / 0 m 160 ft / 49 m
31 148 ft / 45 m 8,300 ft / 2,530 m 316.11° 309.96° Asphalt 0 ft / 0 m 145 ft / 44 m

UKLU

Details ICAO UKLU (UDJ)
Name UZHHOROD INTL
Region Ukraine
Timezone Europe/Uzhgorod (UTC+3.0)
Stats Elevation 383 ft / 117 m (AMSL)
Location 48.634278° 22.263355°
Runways 1
Magnetic Variation 5.594° E

METAR

UKLU 221600Z 33003MPS 300V020 9999 FEW040 BKN100 20/14 Q1018 NOSIG

Decode

TAF

Not found

Destination Runways

ID Width Length Bearing (true) Bearing (mag) Surface Threshold Offset Overrun Length
10 131 ft / 40 m 6,682 ft / 2,037 m 103.38° 97.79° Concrete 0 ft / 0 m 0 ft / 0 m
28 131 ft / 40 m 6,682 ft / 2,037 m 283.40° 277.81° Concrete 1,765 ft / 538 m 0 ft / 0 m

Popular Alternatives